Back to catalog

STARLINK-36172

AliveCommunicationsVLEO
NORAD 67020·PAYLOAD·🇺🇸 United States

Launched Dec 10, 2025 from Vandenberg Space Force Base

Loading…

Next Passes (next 24 hours)

TLE

FreshSource: CelesTrak SupGP

Epoch: Sep 14, 2026, 21:39 UTC

1 67020C 25293T   26257.90256944 -.00041196  00000+0 -34529-2 0  2571
2 67020  70.0016 337.3822 0003755 271.5072 320.8706 14.98343647    19

Track STARLINK-36172 in real time with AllMySat

Download on the App Store